EW2456 Weather Reports


time (UTC)temp
C
wind
direction
speed
KPH
gust
KPH
rain 1hr
cm
rain 24hr
cm
rain mn
cm
humidity
%
barometer
mb
20260510201557 28 242 4.8 14.5 0.03 0.28 0.20 27 1012.4
20260510200120 28 215 4.8 12.9 0.03 0.30 0.20 28 1012.4
20260510194600 28 243 3.2 6.4 0.00 0.28 0.18 26 1012.5
20260510193100 27 134 1.6 9.7 0.00 0.28 0.18 29 1012.6
20260510191550 27 238 1.6 9.7 0.00 0.28 0.18 30 1012.8
20260510190049 27 238 9.7 16.1 0.00 0.28 0.18 27 1013.0
20260510184555 27 207 4.8 12.9 0.03 0.28 0.18 29 1013.1
20260510183046 27 277 3.2 8.0 0.03 0.28 0.18 33 1013.3
20260510181544 27 346 3.2 8.0 0.03 0.28 0.18 35 1013.3
20260510180043 27 244 3.2 11.3 0.00 0.28 0.15 32 1013.4
20260510174549 26 234 1.6 9.7 0.00 0.28 0.15 36 1013.4
20260510173040 27 169 3.2 6.4 0.00 0.28 0.15 35 1013.5
20260510171539 26 153 1.6 8.0 0.03 0.28 0.15 38 1013.6
20260510170035 26 172 3.2 6.4 0.03 0.28 0.15 37 1013.7
20260510164536 26 330 1.6 9.7 0.03 0.28 0.15 38 1013.8
20260510163032 26 84 1.6 8.0 0.03 0.28 0.15 35 1013.8
20260510161533 26 14 4.8 9.7 0.00 0.25 0.13 41 1014.0
20260510160034 26 61 0.0 12.9 0.00 0.28 0.13 40 1014.0
20260510154524 25 9 1.6 8.0 0.03 0.28 0.13 39 1014.2
20260510153032 25 347 4.8 11.3 0.03 0.28 0.13 40 1014.4
20260510151521 25 5 1.6 9.7 0.03 0.28 0.13 48 1014.2
20260510150023 24 15 0.0 9.7 0.03 0.28 0.13 53 1014.2
20260510144520 23 84 1.6 9.7 0.00 0.25 0.10 55 1014.2
20260510143017 23 14 3.2 8.0 0.00 0.25 0.10 55 1014.3
20260510141521 22 327 3.2 8.0 0.03 0.25 0.10 57 1014.1
20260510140005 22 298 1.6 8.0 0.03 0.25 0.10 62 1014.2
20260510134502 21 259 1.6 6.4 0.03 0.25 0.10 63 1014.2
20260510133059 21 309 1.6 6.4 0.03 0.25 0.10 65 1014.2
20260510131556 20 239 1.6 8.0 0.00 0.23 0.08 67 1013.9
20260510130053 19 248 3.2 4.8 0.00 0.25 0.08 69 1013.8
20260510124556 18 246 3.2 8.0 0.00 0.25 0.08 70 1013.6
20260510123046 18 249 1.6 6.4 0.00 0.25 0.08 73 1013.6
20260510121542 17 246 3.2 4.8 0.00 0.25 0.08 74 1013.4
20260510120040 17 244 3.2 8.0 0.00 0.25 0.08 79 1013.4
20260510114540 16 229 3.2 8.0 0.00 0.25 0.08 80 1013.2
20260510113036 16 232 1.6 4.8 0.03 0.25 0.08 81 1013.0
20260510111531 16 227 0.0 0.0 0.03 0.25 0.08 81 1012.7
20260510110034 16 227 0.0 0.0 0.03 0.25 0.08 81 1012.6
20260510104533 15 227 0.0 0.0 0.03 0.25 0.08 81 1012.3
20260510103027 15 227 0.0 0.0 0.00 0.23 0.05 80 1012.1
20260510101523 15 227 0.0 0.0 0.00 0.23 0.05 80 1011.9
20260510100022 16 227 0.0 0.0 0.00 0.23 0.05 80 1011.7
20260510094533 16 227 0.0 0.0 0.00 0.23 0.05 81 1011.7
20260510093018 15 227 0.0 0.0 0.00 0.23 0.05 81 1011.4
20260510091517 15 227 0.0 0.0 0.03 0.23 0.05 81 1011.1
20260510090017 15 227 0.0 0.0 0.03 0.25 0.05 81 1011.0
20260510084516 15 227 0.0 0.0 0.03 0.25 0.05 80 1010.8
20260510083016 15 227 0.0 0.0 0.03 0.25 0.05 81 1010.9
20260510081531 15 227 0.0 3.2 0.00 0.23 0.03 81 1010.9
20260510080015 15 227 0.0 0.0 0.00 0.23 0.03 80 1010.7
20260510074514 15 227 0.0 0.0 0.00 0.23 0.03 80 1010.8
20260510073015 15 227 0.0 0.0 0.00 0.23 0.03 80 1010.7
20260510071512 15 227 0.0 0.0 0.00 0.23 0.03 80 1010.6
20260510070011 15 227 0.0 0.0 0.00 0.23 0.03 80 1010.5
20260510064513 15 227 0.0 0.0 0.00 0.23 0.03 80 1010.7
20260510063010 15 227 0.0 0.0 0.00 0.23 0.03 78 1010.6
20260510061509 15 227 0.0 0.0 0.00 0.23 0.03 78 1010.5
20260510060006 15 227 0.0 0.0 0.03 0.23 0.03 77 1010.6
20260510054502 16 227 0.0 0.0 0.03 0.23 0.03 78 1010.9
20260510053001 16 227 0.0 0.0 0.03 0.23 0.03 78 1010.9
20260510051601 16 227 0.0 0.0 0.03 0.23 0.03 78 1011.1
20260510050059 16 227 0.0 0.0 0.00 0.20 0.00 79 1011.1
20260510044557 16 227 0.0 0.0 0.00 0.20 0.00 78 1011.3
20260510043056 16 227 0.0 0.0 0.00 0.20 0.00 79 1011.3
20260510041624 16 227 0.0 0.0 0.00 0.20 0.00 79 1011.1
20260510040051 16 227 0.0 0.0 0.00 0.23 0.20 77 1011.2
20260510034557 16 227 0.0 0.0 0.00 0.23 0.20 77 1011.0
20260510033100 16 227 0.0 0.0 0.03 0.23 0.20 73 1010.9
20260510031555 16 227 0.0 0.0 0.03 0.23 0.20 71 1010.9
20260510030050 16 227 0.0 0.0 0.03 0.23 0.20 71 1010.8
20260510024606 16 227 0.0 0.0 0.03 0.23 0.20 71 1010.9
20260510023055 16 227 0.0 0.0 0.00 0.20 0.18 70 1010.7
20260510021549 16 227 0.0 0.0 0.00 0.20 0.18 69 1010.7
20260510020049 17 227 0.0 0.0 0.00 0.20 0.18 70 1010.4
20260510014601 17 227 0.0 0.0 0.00 0.20 0.18 69 1010.6
20260510013100 17 227 0.0 0.0 0.00 0.20 0.18 70 1010.0
20260510011547 18 227 0.0 0.0 0.00 0.20 0.18 68 1009.8
20260510010046 18 227 0.0 0.0 0.00 0.20 0.18 68 1009.7
20260510004549 19 227 0.0 0.0 0.00 0.20 0.18 67 1009.6
20260510003048 20 227 0.0 0.0 0.03 0.20 0.18 66 1009.5
20260510001545 20 227 0.0 0.0 0.03 0.20 0.18 64 1009.6
20260510000046 21 227 0.0 4.8 0.03 0.23 0.18 63 1009.6
20260509234544 21 226 1.6 6.4 0.03 0.23 0.18 62 1009.4
20260509233046 21 355 1.6 4.8 0.00 0.20 0.15 62 1009.2
20260509231549 21 223 1.6 6.4 0.00 0.20 0.15 61 1009.0
20260509230042 22 221 1.6 6.4 0.00 0.20 0.15 60 1008.8
20260509224541 22 243 1.6 8.0 0.00 0.20 0.15 59 1008.7
20260509223046 22 250 3.2 8.0 0.03 0.20 0.15 58 1008.9
20260509221544 22 219 4.8 11.3 0.03 0.20 0.15 59 1008.8
20260509220044 22 219 4.8 11.3 0.03 0.23 0.15 59 1009.0
20260509214540 22 202 4.8 12.9 0.03 0.23 0.15 58 1008.8
20260509213039 22 200 3.2 9.7 0.00 0.20 0.13 58 1008.7
20260509211540 22 242 6.4 11.3 0.00 0.20 0.13 58 1008.7
20260509210050 22 248 6.4 14.5 0.00 0.20 0.13 57 1008.8
20260509204538 22 191 4.8 16.1 0.00 0.20 0.13 56 1008.5
20260509203035 21 211 1.6 9.7 0.00 0.20 0.13 61 1008.7